"2010-12-30 00:00:00",466861,13.17,317.6,3.78,0.746,11.3,102.8632,6.608,7.862,29.54,0,110,13.36,7.38,279.6
"2010-12-30 00:00:30",466862,13.17,317.7,3.912,0.748,11.46,102.8615,6.604,7.854,29.57,0,110,13.36,7.38,279.7
"2010-12-30 00:01:00",466863,14.05,316.7,4.033,0.695,11.25,102.8578,6.594,7.848,29.71,0,110,13.36,7.37,278.7
"2010-12-30 00:01:30",466864,13.96,317.1,3.581,0.804,11.36,102.8465,6.565,7.833,29.83,0,110,13.37,7.34,279.1
"2010-12-30 00:02:00",466865,13.67,318.3,3.901,0.614,11.37,102.8465,6.565,7.831,29.77,0,110,13.37,7.34,280.3
"2010-12-30 00:02:30",466866,14.44,317.6,4.201,0.819,11.36,102.8456,6.563,7.809,29.91,0,110,13.37,7.34,279.6
"2010-12-30 00:03:00",466867,14.53,317.8,4.139,0.781,11.37,102.8335,6.532,7.801,30.04,0,110,13.37,7.31,279.8
"2010-12-30 00:03:30",466868,14.51,318.4,3.163,0.762,11.16,102.8143,6.483,7.78,30.1,0,110,13.37,7.26,280.4
"2010-12-30 00:04:00",466869,14.45,318.3,3.705,0.703,11.55,102.8138,6.482,7.772,30.08,0,110,13.37,7.26,280.3
"2010-12-30 00:04:30",466870,15.51,318.1,3.662,0.726,11.22,102.8112,6.475,7.728,30.26,0,110,13.37,7.25,280.1
"2010-12-30 00:05:00",466871,15.53,318.8,3.443,0.807,11.33,102.7853,6.409,7.737,30.41,0,110,13.37,7.18,280.8
"2010-12-30 00:05:30",466872,15.62,318.7,4.63,0.588,11.73,102.7848,6.408,7.694,30.49,0,110,13.37,7.18,280.7
"2010-12-30 00:06:00",466873,15.09,320.1,3.308,0.718,11.6,102.7719,6.375,7.681,30.5,0,110,13.37,7.15,282.1
"2010-12-30 00:06:30",466874,15.18,318.4,4.573,0.62,11.65,102.755,6.331,7.652,30.55,0,109.9,13.37,7.11,280.4
"2010-12-30 00:07:00",466875,15.31,317.2,4.303,0.583,11.55,102.7593,6.343,7.627,30.58,0,109.9,13.37,7.12,279.2
"2010-12-30 00:07:30",466876,14.8,316.8,4.691,0.625,11.57,102.7631,6.352,7.586,30.6,0,109.9,13.37,7.13,278.8
"2010-12-30 00:08:00",466877,14.6,316.8,3.907,0.489,11.6,102.7601,6.345,7.587,30.61,0,109.9,13.38,7.12,278.8
"2010-12-30 00:08:30",466878,14.79,316.8,4.485,0.672,11.4,102.7486,6.315,7.572,30.73,0,109.9,13.38,7.09,278.8
"2010-12-30 00:09:00",466879,15.11,316.9,4.188,0.756,11.53,102.7364,6.284,7.553,30.83,0,109.9,13.38,7.06,278.9
"2010-12-30 00:09:30",466880,14.85,315.7,3.482,0.874,11.55,102.7379,6.288,7.519,30.84,0,109.9,13.38,7.06,277.7
"2010-12-30 00:10:00",466881,14.47,317.6,3.012,0.951,11.49,102.7385,6.289,7.512,30.68,0,109.9,13.38,7.06,279.6
"2010-12-30 00:10:30",466882,15.28,319.1,4.242,0.689,11.32,102.7405,6.295,7.51,30.97,0,109.9,13.38,7.07,281.1
"2010-12-30 00:11:00",466883,14.23,316.8,4.187,0.66,11.61,102.7402,6.294,7.517,30.86,0,109.9,13.38,7.07,278.8
"2010-12-30 00:11:30",466884,14.61,316.9,3.421,0.776,11.34,102.7358,6.282,7.48,30.96,0,109.9,13.38,7.06,278.9
"2010-12-30 00:12:00",466885,14.99,317.7,3.302,0.68,11.32,102.718,6.237,7.463,31.09,0,109.9,13.38,7.01,279.7
"2010-12-30 00:12:30",466886,15.14,318.6,3.522,0.677,11.25,102.7098,6.216,7.455,31.13,0,109.9,13.38,6.99,280.6
"2010-12-30 00:13:00",466887,14.88,319.9,3.475,0.794,11.28,102.711,6.219,7.43,31.22,0,109.9,13.37,6.99,281.9
"2010-12-30 00:13:30",466888,14.73,318.9,4.402,0.659,11.54,102.7116,6.221,7.423,31.3,0,109.9,13.37,6.99,280.9
"2010-12-30 00:14:00",466889,14.7,318.6,3.387,0.658,11.34,102.7028,6.198,7.411,31.32,0,109.9,13.37,6.97,280.6
"2010-12-30 00:14:30",466890,14.62,320.1,4.433,0.597,11.27,102.6814,6.143,7.382,31.37,0,109.9,13.37,6.92,282.1
"2010-12-30 00:15:00",466891,14.39,320.1,4.396,0.626,11.5,102.678,6.135,7.387,31.26,0,109.9,13.37,6.91,282.1
"2010-12-30 00:15:30",466892,14.5,322.6,4.482,0.645,11.81,102.678,6.135,7.387,31.01,0,109.9,13.37,6.91,284.6
"2010-12-30 00:16:00",466893,14.38,323.4,3.522,0.68,11.29,102.678,6.135,7.36,31,0,109.9,13.37,6.91,285.4
"2010-12-30 00:16:30",466894,14.24,322.8,4.071,0.658,11.38,102.678,6.135,7.354,30.93,0,109.9,13.37,6.91,284.8
"2010-12-30 00:17:00",466895,14.01,321.4,3.886,0.698,11.24,102.6768,6.132,7.321,30.92,0,109.9,13.37,6.91,283.4
"2010-12-30 00:17:30",466896,13.5,320.4,4.555,0.604,11.41,102.6599,6.089,7.328,31.05,0,109.9,13.37,6.86,282.4
"2010-12-30 00:18:00",466897,13.98,320.4,3.946,0.523,11.12,102.6449,6.05,7.321,30.99,0,109.9,13.38,6.82,282.4
"2010-12-30 00:18:30",466898,13.85,320.2,4.317,0.562,11.15,102.6441,6.048,7.301,31.04,0,109.9,13.38,6.82,282.2
"2010-12-30 00:19:00",466899,13.68,320.2,4.658,0.59,11.1,102.6441,6.048,7.291,31.05,0,109.9,13.39,6.82,282.2
"2010-12-30 00:19:30",466900,13.74,321.5,4.563,0.549,11.19,102.6441,6.048,7.276,31.05,0,109.9,13.38,6.82,283.5
"2010-12-30 00:20:00",466901,13.97,322.4,3.868,0.632,11.15,102.6364,6.029,7.239,30.96,0,109.8,13.39,6.80,284.4
"2010-12-30 00:20:30",466902,13.49,323.8,4.241,0.694,11.04,102.6257,6.001,7.24,30.82,0,109.9,13.39,6.77,285.8
"2010-12-30 00:21:00",466903,13.52,326.2,4.427,0.676,11.47,102.6263,6.003,7.239,30.8,0,109.9,13.39,6.78,288.2
"2010-12-30 00:21:30",466904,13.57,326.3,4.107,0.74,11.39,102.628,6.007,7.238,30.81,0,109.9,13.39,6.78,288.3
"2010-12-30 00:22:00",466905,13.45,325,3.947,0.579,11.15,102.6291,6.01,7.223,30.85,0,109.9,13.39,6.78,287.0
"2010-12-30 00:22:30",466906,13.59,324,4.256,0.573,11.27,102.6268,6.004,7.232,31,0,109.9,13.39,6.78,286.0
"2010-12-30 00:23:00",466907,13.65,323.8,4.268,0.602,11.28,102.6266,6.003,7.218,30.95,0,109.9,13.39,6.78,285.8
"2010-12-30 00:23:30",466908,13.77,324.6,4.645,0.567,11.3,102.6322,6.018,7.22,30.83,0,109.9,13.39,6.79,286.6
"2010-12-30 00:24:00",466909,13.99,323.7,3.912,0.406,11.17,102.6345,6.024,7.223,30.82,0,109.9,13.39,6.80,285.7
"2010-12-30 00:24:30",466910,13.76,323.1,4.534,0.757,11.45,102.6268,6.004,7.224,30.82,0,109.9,13.39,6.78,285.1
"2010-12-30 00:25:00",466911,13.78,323.3,4.001,0.706,11.23,102.6268,6.004,7.219,30.75,0,109.9,13.39,6.78,285.3
"2010-12-30 00:25:30",466912,13.16,323.8,3.984,0.743,11.37,102.6283,6.008,7.228,30.72,0,109.9,13.39,6.78,285.8
"2010-12-30 00:26:00",466913,13.28,323.8,3.952,0.405,11.69,102.6413,6.041,7.22,30.51,0,109.9,13.39,6.81,285.8
"2010-12-30 00:26:30",466914,13.36,325,4.629,0.661,11.62,102.6478,6.058,7.263,30.26,0,109.9,13.39,6.83,287.0
"2010-12-30 00:27:00",466915,13.49,325.6,4.387,0.705,11.53,102.6766,6.131,7.275,30.19,0,109.9,13.39,6.90,287.6
"2010-12-30 00:27:30",466916,13.39,326.7,3.55,0.781,11.45,102.6849,6.152,7.297,30.28,0,109.9,13.39,6.93,288.7
"2010-12-30 00:28:00",466917,14.25,324.3,4.05,0.528,11.27,102.6912,6.168,7.32,30.4,0,109.9,13.39,6.94,286.3
"2010-12-30 00:28:30",466918,13.9,322.9,4.135,0.749,11.1,102.6861,6.156,7.331,30.5,0,109.9,13.39,6.93,284.9
"2010-12-30 00:29:00",466919,13.63,323.6,4.06,0.602,11.22,102.6867,6.157,7.342,30.48,0,109.9,13.39,6.93,285.6
"2010-12-30 00:29:30",466920,13.72,324.4,4.297,0.588,11.28,102.6867,6.157,7.351,30.42,0,109.9,13.39,6.93,286.4
"2010-12-30 00:30:00",466921,14.48,326.5,3.329,0.59,11.14,102.6884,6.161,7.338,30.52,0,109.9,13.39,6.94,288.5
"2010-12-30 00:30:30",466922,14.33,326,4.218,0.725,11.17,102.6928,6.173,7.342,30.54,0,109.9,13.39,6.95,288.0
"2010-12-30 00:31:00",466923,14.5,326.1,4.025,0.671,11.44,102.6848,6.152,7.332,30.56,0,109.9,13.39,6.93,288.1
"2010-12-30 00:31:30",466924,14.63,325.7,3.999,0.707,11.41,102.6715,6.118,7.328,30.48,0,109.9,13.39,6.89,287.7
"2010-12-30 00:32:00",466925,14.52,325.2,2.984,0.611,11.25,102.6591,6.087,7.325,30.62,0,109.9,13.39,6.86,287.2
"2010-12-30 00:32:30",466926,14.03,325.5,4.407,0.556,11.47,102.6615,6.093,7.312,30.59,0,109.9,13.39,6.87,287.5
"2010-12-30 00:33:00",466927,14.05,325.4,3.999,0.774,11.33,102.6638,6.099,7.306,30.62,0,109.9,13.39,6.87,287.4
"2010-12-30 00:33:30",466928,13.66,325.6,3.597,0.783,11.35,102.6658,6.104,7.289,30.67,0,109.9,13.39,6.88,287.6
"2010-12-30 00:34:00",466929,13.79,326.4,2.875,0.722,11.34,102.652,6.069,7.271,30.65,0,109.9,13.39,6.84,288.4
"2010-12-30 00:34:30",466930,13.06,325.9,3.585,0.797,11.25,102.6515,6.067,7.282,30.63,0,109.9,13.39,6.84,287.9
"2010-12-30 00:35:00",466931,13.05,324.5,4.17,0.578,10.91,102.6485,6.059,7.255,30.73,0,109.9,13.39,6.83,286.5
"2010-12-30 00:35:30",466932,13.32,325.3,4.406,0.637,11.3,102.6406,6.039,7.238,30.8,0,109.9,13.39,6.81,287.3
"2010-12-30 00:36:00",466933,12.59,325.2,4.102,0.625,10.67,102.6251,6,7.202,30.92,0,109.9,13.39,6.77,287.2
"2010-12-30 00:36:30",466934,12.64,325.4,4.697,0.81,10.51,102.6005,5.937,7.196,31.15,0,109.9,13.39,6.71,287.4
"2010-12-30 00:37:00",466935,12.74,327,4.375,0.721,10.57,102.5737,5.868,7.131,31.25,0,109.9,13.4,6.64,289.0
"2010-12-30 00:37:30",466936,12.26,326.2,3.4,0.843,10.56,102.5443,5.793,7.084,31.38,0,109.9,13.4,6.57,288.2
"2010-12-30 00:38:00",466937,12.05,326.3,3.964,0.882,10.6,102.5313,5.76,7.037,31.5,0,109.9,13.4,6.53,288.3
"2010-12-30 00:38:30",466938,11.43,321.9,4.853,1.016,10.45,102.5028,5.687,6.972,31.66,0,109.9,13.4,6.46,283.9
"2010-12-30 00:39:00",466939,12.46,325.2,4.833,0.68,10.43,102.4756,5.618,6.904,31.73,0,109.9,13.4,6.39,287.2
"2010-12-30 00:39:30",466940,12.05,322.2,4.157,0.802,10.26,102.4678,5.598,6.871,31.87,0,109.9,13.39,6.37,284.2
"2010-12-30 00:40:00",466941,11.67,323.2,4.264,0.572,10.19,102.4432,5.535,6.829,32.02,0,109.9,13.4,6.31,285.2
"2010-12-30 00:40:30",466942,11.62,323.7,4.338,0.86,10.17,102.4138,5.46,6.766,32.14,0,109.9,13.4,6.23,285.7
"2010-12-30 00:41:00",466943,12.88,322.4,4.378,0.696,10.26,102.4073,5.443,6.72,32.24,0,109.9,13.4,6.21,284.4
"2010-12-30 00:41:30",466944,12.54,321,4.957,0.756,10.35,102.3858,5.389,6.694,32.36,0,109.9,13.4,6.16,283.0
"2010-12-30 00:42:00",466945,12.12,323.7,3.59,0.915,10.28,102.3737,5.357,6.649,32.46,0,109.8,13.4,6.13,285.7
"2010-12-30 00:42:30",466946,11.53,323.9,3.725,0.853,10.05,102.3584,5.319,6.614,32.59,0,109.9,13.4,6.09,285.9
"2010-12-30 00:43:00",466947,11.93,323.6,4.769,0.663,10.16,102.3398,5.271,6.563,32.67,0,109.9,13.4,6.04,285.6
"2010-12-30 00:43:30",466948,11.65,322.3,3.796,1.028,10.22,102.335,5.259,6.532,32.74,0,109.9,13.4,6.03,284.3
"2010-12-30 00:44:00",466949,11.1,322.7,3.824,0.794,10.06,102.3118,5.199,6.493,32.86,0,109.9,13.4,5.97,284.7
"2010-12-30 00:44:30",466950,12.42,323.4,3.601,0.865,10.03,102.3059,5.184,6.449,32.92,0,109.9,13.4,5.95,285.4
"2010-12-30 00:45:00",466951,12.44,325.4,4.3,1.161,10.07,102.3053,5.183,6.444,32.96,0,109.9,13.4,5.95,287.4
"2010-12-30 00:45:30",466952,12.65,322.9,4.279,0.946,10.16,102.298,5.164,6.4,33,0,109.9,13.4,5.93,284.9
"2010-12-30 00:46:00",466953,12.51,324.9,4.075,0.907,10.39,102.2883,5.14,6.394,33.01,0,109.9,13.4,5.91,286.9
"2010-12-30 00:46:30",466954,12.37,323.4,4.418,1.064,10.14,102.2753,5.106,6.361,33.12,0,109.9,13.4,5.88,285.4
"2010-12-30 00:47:00",466955,12.42,324.3,5.246,1.103,10.33,102.272,5.098,6.361,33.21,0,109.9,13.39,5.87,286.3
"2010-12-30 00:47:30",466956,12.94,323.1,4.974,1.085,10.31,102.272,5.098,6.331,33.28,0,109.9,13.39,5.87,285.1
"2010-12-30 00:48:00",466957,12.57,323.8,4.605,0.956,10.66,102.272,5.098,6.323,33.35,0,109.9,13.4,5.87,285.8
"2010-12-30 00:48:30",466958,11.94,320.2,4.355,1.222,10.24,102.272,5.098,6.326,33.39,0,109.9,13.39,5.87,282.2
"2010-12-30 00:49:00",466959,11.4,325.1,6.617,1.068,10.27,102.2711,5.096,6.299,33.42,0,109.9,13.4,5.87,287.1
"2010-12-30 00:49:30",466960,12.25,318.4,7.903,1.136,10.4,102.2691,5.09,6.271,33.46,0,109.9,13.39,5.86,280.4
"2010-12-30 00:50:00",466961,12.03,321.4,3.541,0.874,10.11,102.2575,5.061,6.277,33.5,0,109.9,13.4,5.83,283.4
"2010-12-30 00:50:30",466962,11.57,323.9,4.559,0.92,10.17,102.2513,5.045,6.255,33.53,0,109.9,13.4,5.81,285.9
"2010-12-30 00:51:00",466963,9.75,322,5.643,0.803,10.02,102.2389,5.013,6.263,33.57,0,109.9,13.41,5.78,284.0
"2010-12-30 00:51:30",466964,11.05,323,4.752,1.297,9.81,102.2315,4.994,6.216,33.62,0,109.9,13.41,5.76,285.0
"2010-12-30 00:52:00",466965,12.08,324.6,4.474,0.978,9.94,102.2084,4.935,6.198,33.67,0,109.9,13.41,5.70,286.6
"2010-12-30 00:52:30",466966,12.16,322.7,5.283,0.834,9.93,102.2041,4.924,6.184,33.73,0,109.9,13.41,5.69,284.7
"2010-12-30 00:53:00",466967,11.66,319.1,4.293,0.815,9.74,102.1996,4.913,6.158,33.82,0,109.9,13.41,5.68,281.1
"2010-12-30 00:53:30",466968,12.03,318,5.795,0.822,10.24,102.1711,4.84,6.133,33.86,0,109.9,13.41,5.61,280.0
"2010-12-30 00:54:00",466969,12.67,318.5,5.106,0.917,9.92,102.1702,4.838,6.111,33.89,0,109.8,13.41,5.61,280.5
"2010-12-30 00:54:30",466970,11.7,318.5,6.428,0.954,10,102.1702,4.838,6.091,33.96,0,109.9,13.41,5.61,280.5
"2010-12-30 00:55:00",466971,12.23,319.9,5.833,0.763,10.19,102.1702,4.838,6.093,33.89,0,109.9,13.41,5.61,281.9
"2010-12-30 00:55:30",466972,12.22,320.1,4.03,0.866,10.3,102.1702,4.838,6.086,33.88,0,109.9,13.41,5.61,282.1
"2010-12-30 00:56:00",466973,13.2,324.4,4.112,0.874,10.54,102.1702,4.838,6.088,33.78,0,109.9,13.41,5.61,286.4
"2010-12-30 00:56:30",466974,13.98,325.9,4.722,0.803,10.75,102.1928,4.896,6.106,33.57,0,109.9,13.41,5.66,287.9
"2010-12-30 00:57:00",466975,14.03,328.2,4.487,0.633,10.74,102.2092,4.937,6.135,33.44,0,109.9,13.41,5.71,290.2
"2010-12-30 00:57:30",466976,14.28,327.3,4.466,0.612,10.72,102.2335,5,6.151,33.44,0,109.8,13.41,5.77,289.3
"2010-12-30 00:58:00",466977,14.81,328.9,3.947,0.447,11.09,102.238,5.011,6.18,33.27,0,109.8,13.42,5.78,290.9
"2010-12-30 00:58:30",466978,14.69,329.8,4.012,0.647,11.03,102.2635,5.076,6.225,33.13,0,109.8,13.42,5.85,291.8
"2010-12-30 00:59:00",466979,13.89,326.7,3.902,1.003,10.37,102.272,5.098,6.254,33.24,0,109.9,13.42,5.87,288.7
"2010-12-30 00:59:30",466980,13.58,325.6,3.729,0.938,10.51,102.2722,5.098,6.253,33.42,0,109.8,13.41,5.87,287.6
"2010-12-30 01:00:00",466981,14.99,330.5,3.963,0.711,11.3,102.2728,5.1,6.254,33.2,0,109.8,13.42,5.87,292.5
"2010-12-30 01:00:30",466982,15.3,331.8,4.101,0.784,11.21,102.2822,5.124,6.287,32.95,0,109.8,13.42,5.89,293.8
"2010-12-30 01:01:00",466983,15.81,330.9,4.477,0.863,11.26,102.309,5.192,6.319,32.92,0,109.8,13.42,5.96,292.9
"2010-12-30 01:01:30",466984,14.64,328.7,3.434,0.82,10.8,102.311,5.197,6.354,33.01,0,109.8,13.42,5.97,290.7
"2010-12-30 01:02:00",466985,15.18,328.4,3.986,1.333,11.28,102.3128,5.202,6.371,33.03,0,109.8,13.41,5.97,290.4
"2010-12-30 01:02:30",466986,16.62,328.9,3.694,0.875,11.64,102.3383,5.267,6.399,32.82,0,109.8,13.41,6.04,290.9
"2010-12-30 01:03:00",466987,15.46,326.7,4.578,0.973,12.04,102.3731,5.356,6.447,32.25,0,109.8,13.41,6.13,288.7
"2010-12-30 01:03:30",466988,14.95,320.2,6.557,1.45,10.72,102.3943,5.41,6.491,32.55,0,109.8,13.41,6.18,282.2
"2010-12-30 01:04:00",466989,12.76,314.7,5.302,0.916,10.59,102.3813,5.377,6.508,32.93,0,109.8,13.41,6.15,276.7
"2010-12-30 01:04:30",466990,14.11,327.4,6.495,1.531,11.03,102.3539,5.307,6.494,32.88,0,109.8,13.41,6.08,289.4
"2010-12-30 01:05:00",466991,15.63,327,4.17,0.753,11.23,102.3577,5.317,6.488,32.69,0,109.8,13.41,6.09,289.0
"2010-12-30 01:05:30",466992,15.7,325.1,4.188,0.571,11.62,102.3876,5.393,6.512,32.48,0,109.8,13.41,6.16,287.1
"2010-12-30 01:06:00",466993,15.77,324.9,3.927,0.455,11.38,102.3998,5.424,6.528,32.47,0,109.8,13.41,6.20,286.9
"2010-12-30 01:06:30",466994,14.93,323.5,4.617,0.668,11.01,102.4083,5.446,6.579,32.59,0,109.8,13.41,6.22,285.5
"2010-12-30 01:07:00",466995,15.33,326.4,3.663,0.936,11.1,102.4022,5.43,6.577,32.67,0,109.8,13.41,6.20,288.4
"2010-12-30 01:07:30",466996,15.31,325.8,3.651,1.01,11.06,102.3968,5.417,6.578,32.72,0,109.8,13.42,6.19,287.8
"2010-12-30 01:08:00",466997,14.97,325.9,3.085,0.808,11.03,102.3945,5.411,6.568,32.77,0,109.8,13.42,6.18,287.9
"2010-12-30 01:08:30",466998,14.78,324.6,3.498,0.883,10.88,102.3813,5.377,6.553,32.86,0,109.8,13.42,6.15,286.6
"2010-12-30 01:09:00",466999,15.22,325.7,4.523,0.742,11.21,102.3623,5.329,6.553,32.85,0,109.8,13.42,6.10,287.7
"2010-12-30 01:09:30",467000,15.22,325.5,4.33,0.696,11.35,102.362,5.328,6.551,32.91,0,109.8,13.42,6.10,287.5
"2010-12-30 01:10:00",467001,15.34,327.6,3.794,0.652,11.17,102.3646,5.334,6.542,32.95,0,109.8,13.42,6.11,289.6
"2010-12-30 01:10:30",467002,15.68,328.1,4.098,0.587,11.66,102.3698,5.347,6.526,32.69,0,109.8,13.42,6.12,290.1
"2010-12-30 01:11:00",467003,15.87,326.4,4.086,0.632,11.88,102.402,5.43,6.54,32.26,0,109.8,13.42,6.20,288.4
"2010-12-30 01:11:30",467004,15.38,325,4.048,0.65,11.89,102.4319,5.506,6.579,31.98,0,109.8,13.42,6.28,287.0
"2010-12-30 01:12:00",467005,14.41,323.1,3.964,0.632,10.84,102.4461,5.542,6.642,32.44,0,109.8,13.42,6.31,285.1
"2010-12-30 01:12:30",467006,14.47,322.4,4.721,0.604,11.09,102.4336,5.511,6.655,32.58,0,109.8,13.42,6.28,284.4
"2010-12-30 01:13:00",467007,14.92,325.3,3.463,0.864,11.56,102.4342,5.512,6.669,32.35,0,109.8,13.42,6.28,287.3
"2010-12-30 01:13:30",467008,15.17,325.3,3.677,0.818,11.24,102.4361,5.517,6.669,32.27,0,109.8,13.42,6.29,287.3
"2010-12-30 01:14:00",467009,14.41,323.5,4.401,0.649,10.88,102.4373,5.52,6.685,32.55,0,109.8,13.42,6.29,285.5
"2010-12-30 01:14:30",467010,14.46,324.3,4.612,0.823,11.15,102.4334,5.51,6.671,32.6,0,109.8,13.42,6.28,286.3
"2010-12-30 01:15:00",467011,14.63,324.6,4.433,0.582,11.37,102.4255,5.49,6.667,32.46,0,109.8,13.42,6.26,286.6
"2010-12-30 01:15:30",467012,14.07,326.7,4.536,0.76,11.12,102.4221,5.481,6.66,32.49,0,109.8,13.42,6.25,288.7
"2010-12-30 01:16:00",467013,14.25,327.2,2.953,0.728,10.72,102.4094,5.449,6.645,32.7,0,109.8,13.42,6.22,289.2
"2010-12-30 01:16:30",467014,14.02,326.2,4.522,0.816,10.87,102.3972,5.418,6.628,32.84,0,109.8,13.42,6.19,288.2
"2010-12-30 01:17:00",467015,14.4,326.7,3.843,0.702,10.94,102.3724,5.354,6.605,32.88,0,109.8,13.42,6.12,288.7
"2010-12-30 01:17:30",467016,14.55,328,3.916,0.744,10.92,102.3681,5.343,6.566,32.94,0,109.8,13.42,6.11,290.0
"2010-12-30 01:18:00",467017,14.2,328.6,3.591,0.596,10.8,102.367,5.34,6.559,32.99,0,109.8,13.42,6.11,290.6
"2010-12-30 01:18:30",467018,14.23,327.6,4.316,0.579,11.09,102.363,5.33,6.553,33,0,109.8,13.42,6.10,289.6
"2010-12-30 01:19:00",467019,14.11,327.9,3.967,0.685,11.1,102.367,5.34,6.535,32.88,0,109.8,13.42,6.11,289.9
"2010-12-30 01:19:30",467020,13.53,327.3,4.811,0.779,10.89,102.3675,5.342,6.54,32.99,0,109.8,13.42,6.11,289.3
"2010-12-30 01:20:00",467021,13.48,330.6,4.092,0.818,10.98,102.3673,5.341,6.54,33.01,0,109.8,13.41,6.11,292.6
"2010-12-30 01:20:30",467022,13.38,329.8,4.169,0.625,10.95,102.3642,5.333,6.527,32.99,0,109.8,13.42,6.10,291.8
"2010-12-30 01:21:00",467023,13.57,329.1,3.797,0.756,10.92,102.3675,5.342,6.531,32.83,0,109.8,13.41,6.11,291.1
"2010-12-30 01:21:30",467024,13.18,329.8,4.139,0.611,10.9,102.3675,5.342,6.524,32.93,0,109.8,13.42,6.11,291.8
"2010-12-30 01:22:00",467025,12.93,330.3,3.852,0.621,10.63,102.3696,5.347,6.524,32.9,0,109.8,13.41,6.12,292.3
"2010-12-30 01:22:30",467026,12.31,332.1,4.059,0.677,10.58,102.3722,5.354,6.544,33.05,0,109.8,13.42,6.12,294.1
"2010-12-30 01:23:00",467027,12.75,331,4.403,0.664,10.7,102.3722,5.354,6.516,32.95,0,109.8,13.42,6.12,293.0
"2010-12-30 01:23:30",467028,13.14,325.4,5.203,0.7,10.7,102.3725,5.354,6.542,32.99,0,109.8,13.42,6.13,287.4
"2010-12-30 01:24:00",467029,12.83,326.1,4.822,0.687,10.46,102.3691,5.346,6.519,33.11,0,109.8,13.42,6.12,288.1
"2010-12-30 01:24:30",467030,13.06,328.3,4.725,0.788,10.74,102.3623,5.328,6.511,33.04,0,109.8,13.42,6.10,290.3
"2010-12-30 01:25:00",467031,13.03,327.9,4.137,0.893,10.48,102.3552,5.31,6.506,33.15,0,109.8,13.42,6.08,289.9
"2010-12-30 01:25:30",467032,13.2,326.8,4.479,0.629,10.79,102.3445,5.283,6.497,33.2,0,109.8,13.42,6.05,288.8
"2010-12-30 01:26:00",467033,12.56,327.1,3.982,0.874,10.39,102.3388,5.268,6.484,33.3,0,109.8,13.42,6.04,289.1
"2010-12-30 01:26:30",467034,11.93,325.3,3.984,0.789,10.61,102.3366,5.263,6.449,33.36,0,109.8,13.42,6.03,287.3
"2010-12-30 01:27:00",467035,11.53,324.5,4.535,0.672,10.55,102.3335,5.255,6.44,33.3,0,109.8,13.42,6.03,286.5
"2010-12-30 01:27:30",467036,11.1,323.1,4.624,0.678,10.36,102.3304,5.247,6.446,33.38,0,109.8,13.42,6.02,285.1
"2010-12-30 01:28:00",467037,11.27,326.1,3.687,0.563,10.25,102.3131,5.203,6.417,33.47,0,109.8,13.43,5.97,288.1
"2010-12-30 01:28:30",467038,10.92,325.3,3.943,0.727,10.18,102.3049,5.182,6.405,33.59,0,109.8,13.43,5.95,287.3
"2010-12-30 01:29:00",467039,11.02,325.3,3.601,0.868,10.04,102.3064,5.186,6.386,33.6,0,109.8,13.42,5.96,287.3
"2010-12-30 01:29:30",467040,11.13,326.4,4.089,0.627,10.13,102.2981,5.165,6.362,33.58,0,109.8,13.42,5.93,288.4
"2010-12-30 01:30:00",467041,11.62,325,3.745,0.41,10.21,102.3035,5.178,6.351,33.43,0,109.8,13.42,5.95,287.0
"2010-12-30 01:30:30",467042,12.04,324.8,4.685,0.661,10.44,102.3069,5.187,6.372,33.3,0,109.8,13.43,5.96,286.8
"2010-12-30 01:31:00",467043,12.1,323.1,4.084,0.691,10.46,102.3338,5.256,6.381,33.17,0,109.8,13.43,6.03,285.1
"2010-12-30 01:31:30",467044,11.87,322.1,4.391,0.617,10.58,102.3493,5.295,6.409,33.07,0,109.8,13.43,6.07,284.1
"2010-12-30 01:32:00",467045,11.52,320.5,3.909,0.511,10.26,102.3728,5.355,6.458,33.19,0,109.8,13.43,6.13,282.5
"2010-12-30 01:32:30",467046,11.92,320.8,4.679,0.612,10.26,102.3731,5.356,6.485,33.28,0,109.8,13.43,6.13,282.8
"2010-12-30 01:33:00",467047,11.62,321.4,4.275,0.612,10.24,102.3728,5.355,6.463,33.27,0,109.8,13.43,6.13,283.4
"2010-12-30 01:33:30",467048,11.21,319.5,4.348,0.628,10.21,102.364,5.333,6.47,33.3,0,109.8,13.43,6.10,281.5
"2010-12-30 01:34:00",467049,11.75,317.6,4.551,0.634,10.32,102.3589,5.32,6.475,33.33,0,109.8,13.43,6.09,279.6
"2010-12-30 01:34:30",467050,12.37,314.1,4.054,0.788,10.36,102.3683,5.344,6.488,33.36,0,109.8,13.42,6.11,276.1
"2010-12-30 01:35:00",467051,12.37,314.4,3.518,0.759,10.29,102.3745,5.36,6.497,33.38,0,109.8,13.42,6.13,276.4
"2010-12-30 01:35:30",467052,12.31,315.1,3.637,0.676,10.34,102.3745,5.36,6.475,33.37,0,109.8,13.42,6.13,277.1
"2010-12-30 01:36:00",467053,12.11,315.2,4.01,0.817,9.77,102.3745,5.36,6.414,33.22,0,109.9,13.42,6.13,277.2
"2010-12-30 01:36:30",467054,12.09,317.1,5.819,1.149,9.48,102.3745,5.36,6.497,33.27,0,109.8,13.42,6.13,279.1
"2010-12-30 01:37:00",467055,11.53,317.1,6.339,1.236,8.74,102.3745,5.36,6.321,33.06,0,109.8,13.42,6.13,279.1
"2010-12-30 01:37:30",467056,11.36,316.5,6.552,1.344,8.95,102.3745,5.36,6.378,33.09,0,109.8,13.42,6.13,278.5
"2010-12-30 01:38:00",467057,12.04,318.7,6.125,1.053,10.27,102.3745,5.36,6.471,33.12,0,109.8,13.42,6.13,280.7
"2010-12-30 01:38:30",467058,12.47,319.8,5.416,0.861,11.12,102.3745,5.36,6.513,33.17,0,109.8,13.42,6.13,281.8
"2010-12-30 01:39:00",467059,12.55,320.7,4.688,0.915,11.11,102.3748,5.36,6.514,33.17,0,109.8,13.42,6.13,282.7
"2010-12-30 01:39:30",467060,12.61,323.3,4.115,0.692,11.29,102.3745,5.36,6.526,33.21,0,109.8,13.43,6.13,285.3
"2010-12-30 01:40:00",467061,12.78,320.7,4.564,0.63,11.14,102.3745,5.36,6.541,33.22,0,109.8,13.43,6.13,282.7
"2010-12-30 01:40:30",467062,12.93,317.9,3.496,0.603,11.08,102.3756,5.362,6.541,33.21,0,109.8,13.43,6.13,279.9
"2010-12-30 01:41:00",467063,13.31,317.7,3.119,0.675,10.74,102.3745,5.36,6.536,33.29,0,109.7,13.43,6.13,279.7
"2010-12-30 01:41:30",467064,13.44,315.5,4.135,0.716,10.87,102.3745,5.36,6.553,33.38,0,109.8,13.43,6.13,277.5
"2010-12-30 01:42:00",467065,13.51,316,4.008,0.797,10.48,102.3745,5.36,6.538,33.44,0,109.8,13.43,6.13,278.0
"2010-12-30 01:42:30",467066,13.54,317.7,3.957,0.665,10.48,102.3745,5.36,6.536,33.44,0,109.8,13.43,6.13,279.7
"2010-12-30 01:43:00",467067,13.61,316.7,3.648,0.87,10.5,102.3745,5.36,6.526,33.51,0,109.8,13.43,6.13,278.7
"2010-12-30 01:43:30",467068,13.53,318.1,3.372,0.664,10.8,102.3745,5.36,6.515,33.57,0,109.8,13.43,6.13,280.1
"2010-12-30 01:44:00",467069,13.71,319.3,3.6,0.675,10.68,102.3745,5.36,6.511,33.47,0,109.8,13.43,6.13,281.3
"2010-12-30 01:44:30",467070,13.85,316,4.279,0.687,10.75,102.3745,5.36,6.535,33.52,0,109.8,13.43,6.13,278.0
"2010-12-30 01:45:00",467071,14.09,313.5,4.175,0.779,10.76,102.3745,5.36,6.53,33.55,0,109.8,13.43,6.13,275.5
"2010-12-30 01:45:30",467072,14.12,312,4.622,0.675,10.8,102.3745,5.36,6.521,33.46,0,109.8,13.43,6.13,274.0
"2010-12-30 01:46:00",467073,14.17,310.6,4.604,0.715,10.75,102.3745,5.36,6.517,33.56,0,109.8,13.43,6.13,272.6
"2010-12-30 01:46:30",467074,13.44,311.5,4.186,0.73,10.54,102.3745,5.36,6.54,33.57,0,109.8,13.43,6.13,273.5
"2010-12-30 01:47:00",467075,13.22,311.9,4.658,0.579,10.51,102.3745,5.36,6.523,33.61,0,109.8,13.43,6.13,273.9
"2010-12-30 01:47:30",467076,13.36,313.6,4.187,0.615,10.7,102.3742,5.359,6.522,33.54,0,109.8,13.43,6.13,275.6
"2010-12-30 01:48:00",467077,13.23,311,5.384,0.706,10.43,102.3745,5.36,6.525,33.53,0,109.8,13.43,6.13,273.0
"2010-12-30 01:48:30",467078,12,309.5,6.784,1.138,10.12,102.3479,5.292,6.5,33.79,0,109.8,13.43,6.06,271.5
"2010-12-30 01:49:00",467079,11.64,307.8,4.416,0.853,10.14,102.3185,5.217,6.46,33.9,0,109.8,13.43,5.99,269.8